Hourly Data Report for January 08, 2022

OTTAWA INTL A
ONTARIO
Current Station Operator: NAVCAN

45°19'00.000" N
75°40'00.000" W
114.90 m
6106001
71628
YOW

Download Data

Hourly Data (January 2022)
Hourly Data Report for January 8, 2022
TIME
LST
Temp Definition
°C
Dew Point Definition
°C
Rel Hum Definition
%
Precip. Amount Definition
mm

Wind Dir Definition
10's deg

Wind Spd Definition
km/h
Visibility Definition
km
Stn Press Definition
kPa
Hmdx Definition


Wind Chill Definition


Weather Definition


00:00 -17.9 -21.8 72   30 23 24.1 101.21   -29 LegendNANA
01:00 -18.5 -22.1 74   29 15 24.1 101.31   -27 Clear
02:00 -19.1 -22.6 75   28 23 24.1 101.46   -30 LegendNANA
03:00 -19.4 -22.8 75   29 18 24.1 101.58   -29 LegendNANA
04:00 -20.1 -23.4 76   30 16 24.1 101.66   -30 Clear
05:00 -21.3 -24.1 79   27 17 24.1 101.81   -31 LegendNANA
06:00 -21.2 -24.1 78   31 8 24.1 101.87   -28 LegendNANA
07:00 -21.8 -24.0 83   25 9 24.1 101.98   -29 Clear
08:00 -22.4 -24.8 82   25 16 24.1 102.14   -32 LegendNANA
09:00 -21.0 -23.9 78   25 7 24.1 102.18   -27 LegendNANA
10:00 -19.2 -23.1 72   30 8 24.1 102.29   -25 Mainly Clear
11:00 -17.8 -22.8 66   34 5 24.1 102.23   -22 LegendNANA
12:00 -15.8 -22.1 59   3 3 24.1 102.13   -18 LegendNANA
13:00 -13.9 -21.7 52   19 10 24.1 102.02   -20 Mostly Cloudy
14:00 -13.6 -21.7 51   16 13 24.1 101.93   -21 LegendNANA
15:00 -13.4 -20.6 55   11 15 24.1 101.88   -21 LegendNANA
16:00 -14.3 -20.3 61   10 14 24.1 101.86   -22 Cloudy
17:00 -14.1 -19.5 64   9 9 24.1 101.80   -20 LegendNANA
18:00 -14.1 -19.2 66   10 17 24.1 101.68   -22 LegendNANA
19:00 -14.0 -19.3 64   10 20 24.1 101.45   -23 Mostly Cloudy
20:00 -14.5 -19.5 66   7 13 24.1 101.44   -22 LegendNANA
21:00 -14.3 -19.1 67   7 16 24.1 101.28   -22 LegendNANA
22:00 -13.8 -18.2 70   8 12 24.1 101.12   -21 Mostly Cloudy
23:00 -13.4 -17.2 74   8 14 24.1 100.97   -21 LegendNANA

Notes on Data Quality.

Legend

  • E = Estimated
  • M = Missing
  • NA = Not Available*
  • [empty] = Indicates an unobserved value
Date modified: